Weather History for KFVE - January, 2013

Change the Weather History Date:

Friday, January 18, 2013

  Actual Average Record
Temperature  
Mean Temperature -8 °F 8 °F  
Max Temperature 1 °F 17 °F 46 °F (2006)
Min Temperature -17 °F 0 °F -24 °F (2009)
Degree Days  
Heating Degree Days 73    
Month to date heating degree days 936  
Since 1 July heating degree days 4347  
Cooling Degree Days 0    
Month to date cooling degree days 0  
Year to date cooling degree days 0  
Moisture  
Dew Point -17 °F    
Average Humidity 64    
Maximum Humidity 84    
Minimum Humidity 43    
Precipitation  
Precipitation T in 0.02 in 0.37 in (2006)
Month to date precipitation 0.07 1.37  
Year to date precipitation 0.07 1.37  
Sea Level Pressure  
Sea Level Pressure 30.15 in    
Wind  
Wind Speed 7 mph (WSW)    
Max Wind Speed 18 mph    
Max Gust Speed 24 mph    
Visibility 10 miles    
Events Snow    
T = Trace of Precipitation, MM = Missing Value Source: NWS Daily Summary

Daily Weather History Graph

Daily Weather History Graph

Search for Another Location

Airport or City:

Trip Planner

Search our weather history database for the weather conditions in past years. The results will help you decide how hot, cold, wet, or windy it might be!

Date:

Astronomy

Jan. 18, 2013 Rise Set
Actual Time 7:13 AM EST 4:14 PM EST
Civil Twilight 6:39 AM EST 4:48 PM EST
Nautical Twilight 6:01 AM EST 5:26 PM EST
Astronomical Twilight 5:24 AM EST 6:03 PM EST
Moon 10:16 AM EST (1/18) No Moon Set
Length of Visible Light 10h 09m
Length of Day
9h 01m
Waxing Crescent, 47% of the Moon is Illuminated
Jan 18
Waxing Crescent
Jan 18
First Quarter
Jan 26
Full
Feb 3
Last Quarter
Feb 10
New

Hourly Weather History & Observations

Time (EST) Temp. Windchill Dew Point Humidity Pressure Visibility Wind Dir Wind Speed Gust Speed Precip Events Conditions
12:53 AM -11.9 °F -23.8 °F -18.9 °F 71% 30.11 in 10.0 mi NNW 4.6 mph - N/A   Clear
1:53 AM -11.9 °F -21.5 °F -20.0 °F 67% 30.16 in 10.0 mi West 3.5 mph - N/A   Clear
2:53 AM -13.0 °F - -18.9 °F 75% 30.15 in 10.0 mi Calm Calm - N/A   Clear
3:53 AM -13.0 °F -22.7 °F -20.0 °F 71% 30.14 in 10.0 mi West 3.5 mph - N/A   Partly Cloudy
4:53 AM -14.1 °F - -20.0 °F 75% 30.16 in 10.0 mi Calm Calm - N/A   Mostly Cloudy
5:45 AM -16.6 °F -31.3 °F -20.2 °F 84% 30.07 in 7.0 mi West 5.8 mph - N/A   Overcast
5:53 AM -15.0 °F - -20.0 °F 78% 30.17 in 7.0 mi Calm Calm - N/A   Overcast
6:09 AM -16.6 °F - -20.2 °F 84% 30.07 in 10.0 mi Calm Calm - N/A   Scattered Clouds
6:53 AM -15.0 °F - -20.0 °F 78% 30.17 in 10.0 mi Calm Calm - N/A   Clear
7:53 AM -16.1 °F - -20.9 °F 79% 30.19 in 10.0 mi Calm Calm - N/A   Clear
8:53 AM -15.0 °F -27.4 °F -20.9 °F 75% 30.20 in 10.0 mi WSW 4.6 mph - N/A   Scattered Clouds
9:53 AM -9.9 °F -19.2 °F -18.0 °F 68% 30.19 in 9.0 mi SW 3.5 mph - 0.00 in Snow Light Snow
10:53 AM -7.6 °F -20.6 °F -16.6 °F 65% 30.08 in 10.0 mi SSW 5.8 mph - N/A   Clear
11:53 AM -5.1 °F -19.1 °F -16.1 °F 59% 30.14 in 10.0 mi WSW 6.9 mph - N/A   Clear
12:53 PM -2.9 °F -18.8 °F -16.1 °F 54% 30.14 in 10.0 mi West 9.2 mph - N/A   Clear
1:53 PM -0.0 °F -16.3 °F -16.1 °F 47% 30.13 in 10.0 mi West 10.4 mph - N/A   Overcast
2:53 PM 1.0 °F -17.3 °F -17.0 °F 43% 30.13 in 10.0 mi WSW 13.8 mph 19.6 mph N/A   Clear
3:53 PM -0.0 °F -18.0 °F -17.0 °F 45% 30.14 in 10.0 mi WSW 12.7 mph - N/A   Clear
4:53 PM -0.9 °F -18.3 °F -17.0 °F 47% 30.15 in 10.0 mi WSW 11.5 mph - N/A   Clear
5:53 PM -2.0 °F -16.6 °F -16.1 °F 51% 30.16 in 10.0 mi WSW 8.1 mph 18.4 mph N/A   Clear
6:53 PM -2.0 °F -18.7 °F -15.0 °F 54% 30.16 in 10.0 mi WSW 10.4 mph - N/A   Clear
7:53 PM -2.0 °F -21.2 °F -14.1 °F 57% 30.19 in 10.0 mi WSW 13.8 mph 24.2 mph N/A   Clear
8:53 PM -2.0 °F -20.5 °F -14.1 °F 57% 30.20 in 10.0 mi West 12.7 mph - N/A   Clear
9:53 PM -2.0 °F -20.5 °F -14.1 °F 57% 30.19 in 10.0 mi WSW 12.7 mph 17.3 mph N/A   Clear
10:53 PM -2.0 °F -13.9 °F -13.0 °F 60% 30.19 in 10.0 mi WSW 5.8 mph - N/A   Clear
11:53 PM -0.9 °F -16.4 °F -11.9 °F 60% 30.18 in 10.0 mi WSW 9.2 mph - N/A   Clear